[[{"header":{"parameterUnit":"m.s-1","parameterCategory":1,"la1":30.2991,"la2":30.254,"lo1":-89.0895,"lo2":-89.0444,"dy":0.0017,"dx":0.0017,"nx":28,"ny":28,"refTime":"2023-09-14T09:00:00:Z","depth":0,"parameterNumber":2,"parameterNumberName":"U-component_of_WINDS"},"data":[0,0,0,0,0,0,0,0,0,0,0,0,0,0,0,0,0,0,0,0,0,0,0,0,0,0,0,0,0,0,0,0,0,0,0,0,0,0,0,0,0,0,0,0,0,0,0,0,0,0,0,0,0,0,0,0,0,0,-3.1641,-3.164,0,-3.159,-3.1589,-3.1589,-3.1445,-3.1442,-3.1439,-3.1436,-3.1387,-3.1388,-3.139,0,0,0,0,0,0,0,0,0,0,0,0,0,-3.1619,-3.162,-3.1641,-3.164,-3.164,-3.159,-3.1589,-3.1588,-3.1446,-3.1442,-3.1438,-3.1435,-3.1386,-3.1388,-3.139,0,0,0,0,0,0,0,0,0,0,0,0,0,-3.1604,-3.162,-3.1641,-3.1562,-3.1555,-3.159,-3.1589,-3.1588,-3.1447,-3.1442,-3.1437,-3.1433,-3.1386,-3.1388,-3.139,-3.1499,0,0,-3.1398,-3.1399,0,0,0,0,0,0,0,0,-3.1605,-3.1605,-3.1575,-3.1568,-3.1559,-3.1519,-3.1563,-3.1558,-3.1448,-3.1488,-3.1436,-3.1431,-3.1435,-3.1433,-3.1434,-3.1496,-3.1494,-3.1398,-3.1399,-3.14,-3.1401,0,0,0,0,0,0,0,-3.1607,-3.1607,-3.1621,-3.1574,-3.1565,-3.1531,-3.1524,-3.1562,-3.1488,-3.1484,-3.1473,-3.1469,-3.143,-3.1432,-3.1431,-3.1493,-3.1398,-3.14,-3.1401,-3.1402,-3.1643,-3.1648,0,0,0,0,0,0,-3.1618,-3.1608,-3.1622,-3.1619,-3.1571,-3.1535,-3.1527,-3.1537,-3.1487,-3.1475,-3.1473,-3.1463,-3.143,-3.1429,-3.1429,-3.1552,-3.14,-3.1403,-3.1404,-3.1638,-3.1644,-3.1649,0,0,0,0,0,0,-3.1618,-3.1621,-3.1624,-3.1611,-3.1609,-3.154,-3.1553,-3.1538,-3.154,-3.1479,-3.1466,-3.1488,-3.1426,-3.1426,-3.1482,-3.1549,-3.1404,-3.1406,-3.1632,-3.164,-3.1647,-3.18,0,0,0,0,0,0,-3.1618,-3.1622,-3.1661,-3.1613,-3.161,-3.1678,-3.1557,-3.1541,-3.1544,-3.153,-3.149,-3.1479,-3.1422,-3.1479,-3.1485,-3.1549,-3.1408,-3.1626,-3.1636,-3.1644,-3.1789,-3.1812,-3.1832,0,0,0,0,0,-3.1618,-3.1707,-3.1664,-3.1666,-3.1658,-3.1682,-3.168,-3.1613,-3.155,-3.1589,-3.1551,-3.148,-3.1541,-3.1486,-3.1491,-3.1558,-3.1621,-3.1633,-3.1644,-3.1779,-3.1807,-3.1831,0,0,0,0,0,0,-3.1765,-3.1699,-3.1651,-3.1726,-3.1711,-3.1657,-3.1705,-3.1645,-3.1647,-3.1634,-3.1551,-3.1543,-3.1612,-3.159,-3.1531,-3.166,-3.157,-3.1582,-3.1671,-3.1697,-3.1718,-3.1722,-3.141,0,0,0,0,0,-3.1807,-3.1831,-3.1772,-3.1844,-3.1839,-3.1774,-3.1782,-3.1731,-3.1712,-3.1705,-3.167,-3.1656,-3.1671,-3.1683,-3.1694,-3.1786,-3.1775,-3.1834,-3.1855,-3.1873,-3.1885,-3.1932,-3.1957,-3.1686,-3.1686,-3.1686,0,0,-3.1892,-3.1859,-3.1879,-3.1873,-3.1855,-3.1883,-3.1769,-3.1803,-3.1823,-3.1711,-3.1761,-3.1736,-3.1714,-3.1789,-3.182,-3.1773,-3.1958,-3.1887,-3.1902,-3.1904,-3.1946,-3.1972,-3.1995,-3.1694,-3.1692,-3.1691,0,0,-3.2062,-3.2039,-3.2097,-3.2081,-3.2055,-3.2012,-3.2026,-3.1982,-3.1961,-3.201,-3.1927,-3.195,-3.1979,-3.1967,-3.1964,-3.2132,-3.2067,-3.2138,-3.225,-3.2297,-3.2318,-3.2337,-3.2396,-3.2419,-3.215,-3.2151,-3.2151,0,-3.2171,-3.2208,-3.2135,-3.2174,-3.2174,-3.2073,-3.2132,-3.2121,-3.2101,-3.2104,-3.2052,-3.2086,-3.2064,-3.2135,-3.2176,-3.2177,-3.2192,-3.2141,-3.2321,-3.2339,-3.2355,-3.2411,-3.2434,-3.2159,-3.2158,-3.2157,-3.2157,0,-3.2345,-3.2372,-3.2422,-3.2404,-3.241,-3.246,-3.2395,-3.241,-3.236,-3.2323,-3.2375,-3.2346,-3.2349,-3.2363,-3.2314,-3.2427,-3.2399,-3.2336,-3.2243,-3.2391,-3.2442,-3.2463,-3.2172,-3.2169,-3.2166,-3.2164,0,0,-3.2603,-3.2545,-3.2565,-3.2555,-3.252,-3.2541,-3.2587,-3.2589,-3.2604,-3.2595,-3.2631,-3.2659,-3.26,-3.2597,-3.2547,-3.2589,-3.2724,-3.252,-3.2518,-3.2558,-3.2846,-3.2894,-3.292,-3.2681,-3.2685,-3.2688,-3.2848,0,-3.2763,-3.2835,-3.2771,-3.2857,-3.2882,-3.2788,-3.2827,-3.2811,-3.2778,-3.2796,-3.2759,-3.278,-3.2701,-3.2699,-3.2736,-3.2699,-3.278,-3.2687,-3.2715,-3.2717,-3.2722,-3.2946,-3.2996,-3.3149,-3.2868,-3.2871,-3.2874,0,-3.2958,-3.2956,-3.3045,-3.3005,-3.3013,-3.3049,-3.3047,-3.3065,-3.3046,-3.3019,-3.3017,-3.2956,-3.2999,-3.291,-3.2969,-3.2907,-3.2915,-3.2899,-3.2903,-3.2902,-3.2803,-3.2951,-3.3196,-3.3219,-3.2904,-3.2902,-3.29,0,-3.3137,-3.3158,-3.3213,-3.3208,-3.3163,-3.3191,-3.3174,-3.315,-3.3156,-3.3155,-3.3159,-3.3164,-3.3166,-3.3172,-3.3114,-3.3054,-3.3181,-3.3087,-3.316,-3.3162,-3.319,-3.3189,-3.3439,-3.3197,-3.3197,-3.3197,-3.3196,0,-3.3321,-3.3379,-3.3293,-3.3327,-3.3389,-3.3316,-3.338,-3.3353,-3.3333,-3.3361,-3.3281,-3.3309,-3.3231,-3.3252,-3.3208,-3.3264,-3.3266,-3.3246,-3.3233,-3.3252,-3.3255,-3.3255,-3.3243,-3.3203,-3.3201,-3.32,-3.3199,0,-3.3531,-3.3476,-3.3529,-3.3483,-3.3473,-3.3521,-3.3482,-3.3512,-3.3474,-3.3511,-3.3516,-3.3457,-3.3478,-3.3421,-3.3433,-3.3403,-3.3484,-3.3455,-3.349,-3.3481,-3.3558,-3.3551,-3.3816,-3.3847,-3.3587,-3.359,-3.3592,0,-3.3651,-3.3693,-3.3651,-3.3664,-3.3651,-3.3673,-3.3679,-3.361,-3.3619,-3.3601,-3.3634,-3.3648,-3.3655,-3.3693,-3.3652,-3.3661,-3.3631,-3.3723,-3.3632,-3.365,-3.3632,-3.3629,-3.3633,-3.3742,-3.3745,-3.3748,-3.375,0,-3.387,-3.3841,-3.3852,-3.3855,-3.3864,-3.3863,-3.3857,-3.3872,-3.3798,-3.3814,-3.3833,-3.3839,-3.3851,-3.3867,-3.3867,-3.385,-3.3789,-3.3779,-3.3797,-3.3816,-3.3835,-3.3825,-3.3541,-3.3773,-3.3771,-3.3769,-3.3768,-3.3767,-3.4038,-3.4071,-3.4047,-3.4063,-3.4051,-3.4047,-3.4073,-3.4039,-3.4054,-3.4058,-3.4017,-3.4046,-3.4027,-3.4021,-3.4012,-3.4034,-3.3991,-3.4017,-3.4023,-3.403,-3.4043,-3.3833,-3.4034,-3.4033,-3.4032,-3.4032,-3.4031,0,-3.4252,-3.4233,-3.4248,-3.4241,-3.4254,-3.4195,-3.4185,-3.42,-3.4226,-3.4213,-3.4222,-3.4246,-3.426,-3.4222,-3.4231,-3.4257,-3.4229,-3.4261,-3.4258,-3.4255,-3.408,-3.4064,-3.4284,-3.4284,-3.4284,-3.4284,-3.4284,-3.4284,-3.4365,-3.4418,-3.4387,-3.4434,-3.4414,-3.4441,-3.444,-3.4437,-3.4426,-3.4456,-3.4468,-3.4442,-3.442,-3.4427,-3.4439,-3.4427,-3.4434,-3.4477,-3.4456,-3.4292,-3.4268,-3.4244,-3.4228,-3.4479,-3.4479,-3.4628,-3.463,-3.4631]},{"header":{"parameterUnit":"m.s-1","parameterCategory":1,"la1":30.2991,"la2":30.254,"lo1":-89.0895,"lo2":-89.0444,"dy":0.0017,"dx":0.0017,"nx":28,"ny":28,"refTime":"2023-09-14T09:00:00:Z","depth":0,"parameterNumber":3,"parameterNumberName":"V-component_of_WINDS"},"data":[0,0,0,0,0,0,0,0,0,0,0,0,0,0,0,0,0,0,0,0,0,0,0,0,0,0,0,0,0,0,0,0,0,0,0,0,0,0,0,0,0,0,0,0,0,0,0,0,0,0,0,0,0,0,0,0,0,0,-2.1712,-2.1714,0,-2.1878,-2.188,-2.1881,-2.1907,-2.1906,-2.1904,-2.1903,-2.2062,-2.2068,-2.2073,0,0,0,0,0,0,0,0,0,0,0,0,0,-2.1411,-2.1416,-2.1712,-2.1714,-2.1717,-2.1877,-2.188,-2.1882,-2.1907,-2.1905,-2.1904,-2.1902,-2.2061,-2.2067,-2.2074,0,0,0,0,0,0,0,0,0,0,0,0,0,-2.1555,-2.1418,-2.1712,-2.1749,-2.1754,-2.1877,-2.188,-2.1882,-2.1908,-2.1905,-2.1903,-2.1901,-2.2058,-2.2067,-2.2075,-2.217,0,0,-2.2101,-2.2104,0,0,0,0,0,0,0,0,-2.1547,-2.1566,-2.1741,-2.1746,-2.1752,-2.187,-2.1832,-2.1978,-2.1908,-2.1849,-2.1903,-2.19,-2.1999,-2.2013,-2.2048,-2.2177,-2.2184,-2.2101,-2.2106,-2.211,-2.2112,0,0,0,0,0,0,0,-2.1537,-2.1559,-2.1777,-2.1744,-2.175,-2.1754,-2.1773,-2.186,-2.1934,-2.1854,-2.1856,-2.1876,-2.2002,-2.204,-2.2052,-2.2187,-2.2101,-2.2108,-2.2114,-2.2117,-2.2404,-2.2406,0,0,0,0,0,0,-2.1522,-2.1551,-2.1772,-2.1782,-2.1643,-2.1762,-2.1782,-2.1834,-2.1933,-2.1946,-2.1878,-2.1876,-2.2027,-2.2042,-2.2058,-2.2177,-2.211,-2.2118,-2.2123,-2.2401,-2.2404,-2.2407,0,0,0,0,0,0,-2.1515,-2.1541,-2.1766,-2.1668,-2.1696,-2.1769,-2.1827,-2.1838,-2.1877,-2.1951,-2.1964,-2.1903,-2.2025,-2.2046,-2.2143,-2.2183,-2.2122,-2.2129,-2.2398,-2.2402,-2.2406,-2.2415,0,0,0,0,0,0,-2.1506,-2.1539,-2.1577,-2.1668,-2.1702,-2.185,-2.183,-2.1843,-2.1892,-2.1892,-2.1979,-2.1991,-2.2025,-2.213,-2.2151,-2.2193,-2.2136,-2.2395,-2.24,-2.2404,-2.2411,-2.2418,-2.2425,0,0,0,0,0,-2.1495,-2.1571,-2.1579,-2.1606,-2.1752,-2.1853,-2.1871,-2.1912,-2.1895,-2.1934,-2.1982,-2.1988,-2.2175,-2.214,-2.2164,-2.2209,-2.2392,-2.2398,-2.2404,-2.2408,-2.2417,-2.2424,0,0,0,0,0,0,-2.1478,-2.1583,-2.1594,-2.1701,-2.1768,-2.1857,-2.1906,-2.192,-2.1991,-2.1988,-2.2033,-2.2052,-2.2147,-2.2187,-2.2147,-2.2307,-2.2282,-2.2293,-2.2277,-2.2286,-2.2292,-2.228,-2.2143,0,0,0,0,0,-2.1488,-2.1564,-2.165,-2.1736,-2.177,-2.1833,-2.1878,-2.1904,-2.1974,-2.2002,-2.2057,-2.2122,-2.2196,-2.2243,-2.2315,-2.2417,-2.2436,-2.246,-2.2466,-2.2472,-2.248,-2.2538,-2.255,-2.2426,-2.2426,-2.2426,0,0,-2.1507,-2.1573,-2.1618,-2.1735,-2.179,-2.1866,-2.1856,-2.1936,-2.1992,-2.2013,-2.2109,-2.2152,-2.2227,-2.2328,-2.2375,-2.2365,-2.2519,-2.2479,-2.2483,-2.2489,-2.2546,-2.2557,-2.2568,-2.243,-2.2429,-2.2429,0,0,-2.158,-2.1639,-2.1718,-2.1775,-2.186,-2.1901,-2.192,-2.2008,-2.2038,-2.2136,-2.2154,-2.222,-2.2345,-2.2399,-2.2443,-2.2539,-2.2548,-2.2561,-2.2596,-2.2652,-2.2662,-2.2671,-2.2705,-2.2717,-2.2569,-2.2569,-2.2569,0,-2.1592,-2.171,-2.1756,-2.1837,-2.1887,-2.1914,-2.1994,-2.2045,-2.2147,-2.2181,-2.2168,-2.2329,-2.2381,-2.2495,-2.2519,-2.2554,-2.2576,-2.2551,-2.2657,-2.2667,-2.2675,-2.2709,-2.2722,-2.2571,-2.257,-2.257,-2.257,0,-2.172,-2.1802,-2.1855,-2.1958,-2.2015,-2.2094,-2.215,-2.2202,-2.2223,-2.2265,-2.2365,-2.243,-2.2516,-2.2545,-2.2565,-2.2662,-2.2653,-2.2649,-2.2625,-2.2688,-2.272,-2.2733,-2.2572,-2.2572,-2.2571,-2.2571,0,0,-2.1786,-2.1917,-2.1935,-2.1983,-2.208,-2.2142,-2.2222,-2.231,-2.2354,-2.2423,-2.2491,-2.2598,-2.2596,-2.2645,-2.2672,-2.2721,-2.2794,-2.271,-2.2713,-2.2724,-2.2906,-2.2909,-2.2924,-2.2801,-2.2803,-2.2806,-2.29,0,-2.1871,-2.2019,-2.2064,-2.2187,-2.2263,-2.229,-2.236,-2.2425,-2.2467,-2.2535,-2.258,-2.2656,-2.2646,-2.2676,-2.2727,-2.2775,-2.2831,-2.2769,-2.2863,-2.2865,-2.2843,-2.2941,-2.2944,-2.303,-2.2913,-2.2915,-2.2917,0,-2.199,-2.2067,-2.2199,-2.2288,-2.2321,-2.2384,-2.2469,-2.2534,-2.2609,-2.2636,-2.2693,-2.2716,-2.2799,-2.2771,-2.2886,-2.2842,-2.2883,-2.2913,-2.2917,-2.2927,-2.2895,-2.2953,-2.3058,-2.3071,-2.2937,-2.2935,-2.2934,0,-2.2026,-2.2162,-2.2259,-2.2299,-2.2405,-2.2448,-2.2494,-2.2567,-2.2618,-2.2691,-2.2724,-2.2804,-2.2848,-2.2909,-2.2953,-2.2928,-2.3064,-2.3039,-2.3087,-2.3086,-2.3114,-2.3111,-2.3227,-2.314,-2.314,-2.3139,-2.3139,0,-2.2116,-2.2196,-2.2277,-2.2336,-2.2426,-2.2476,-2.2562,-2.2609,-2.2674,-2.2742,-2.2768,-2.283,-2.2885,-2.2953,-2.2988,-2.3078,-2.3097,-2.312,-2.3128,-2.3118,-2.3115,-2.3145,-2.314,-2.3143,-2.3142,-2.3141,-2.3141,0,-2.2171,-2.2229,-2.2336,-2.243,-2.2455,-2.2517,-2.2596,-2.2653,-2.2697,-2.2782,-2.2805,-2.2872,-2.2955,-2.3006,-2.3108,-2.3132,-2.3231,-2.3236,-2.3207,-2.3211,-2.3256,-2.3252,-2.3395,-2.3417,-2.3315,-2.3316,-2.3317,0,-2.2225,-2.2288,-2.2389,-2.2439,-2.2486,-2.2564,-2.2617,-2.2668,-2.2722,-2.2813,-2.286,-2.2945,-2.3016,-2.3147,-2.3203,-2.3283,-2.329,-2.3335,-2.3302,-2.3291,-2.3292,-2.3288,-2.3294,-2.334,-2.3341,-2.3342,-2.3343,0,-2.2315,-2.2341,-2.2419,-2.2507,-2.257,-2.2641,-2.2711,-2.2748,-2.2811,-2.287,-2.2957,-2.3013,-2.3121,-2.3204,-2.329,-2.3333,-2.3348,-2.3353,-2.3368,-2.3359,-2.3339,-2.3351,-2.3223,-2.3349,-2.3349,-2.3348,-2.3348,-2.3347,-2.2372,-2.2429,-2.2511,-2.2596,-2.2655,-2.2721,-2.2781,-2.2834,-2.2908,-2.3003,-2.3028,-2.3119,-2.3193,-2.3309,-2.3356,-2.3426,-2.3419,-2.3441,-2.3446,-2.3451,-2.3453,-2.3329,-2.3441,-2.3441,-2.3441,-2.3441,-2.3441,0,-2.2464,-2.2518,-2.2597,-2.2696,-2.2763,-2.2776,-2.2854,-2.2908,-2.299,-2.3059,-2.313,-2.323,-2.3312,-2.3377,-2.3461,-2.3505,-2.3514,-2.3525,-2.3522,-2.3532,-2.3454,-2.3433,-2.3516,-2.3516,-2.3516,-2.3516,-2.3516,-2.3516,-2.252,-2.2619,-2.2655,-2.2783,-2.2836,-2.2929,-2.2973,-2.3033,-2.3089,-2.3201,-2.3271,-2.3314,-2.3381,-2.347,-2.3546,-2.3562,-2.3592,-2.3602,-2.362,-2.3546,-2.3537,-2.3529,-2.351,-2.3608,-2.3608,-2.3692,-2.3693,-2.3694]}]]